Time,TemperatureF,DewpointF,PressureIn,WindDirection,WindDirectionDegrees,WindSpeedMPH,WindSpeedGustMPH,Humidity,HourlyPrecipIn,Conditions,Clouds,dailyrainin,SolarRadiationWatts/m^2,SoftwareType,DateUTC
2013-06-20 00:02:00,73.0,71.0,-100.00,SW,221,0.0,0.0,94,0.00,,,0.10,0.000000,,2013-06-20 05:02:00,
2013-06-20 00:12:00,73.0,71.0,-100.00,SW,221,0.0,0.0,94,0.00,,,0.10,0.000000,,2013-06-20 05:12:00,
2013-06-20 00:44:00,73.0,71.0,-100.00,NNW,347,0.0,0.0,94,0.00,,,0.10,0.000000,,2013-06-20 05:44:00,
2013-06-20 00:53:00,73.0,71.0,-100.00,NNW,347,0.0,0.0,94,0.00,,,0.10,0.000000,,2013-06-20 05:53:00,
2013-06-20 01:02:00,73.0,71.0,-100.00,NNW,347,0.0,0.0,94,0.00,,,0.10,0.000000,,2013-06-20 06:02:00,
2013-06-20 01:11:00,73.0,71.0,-100.00,NNW,347,0.0,0.0,94,0.00,,,0.10,0.000000,,2013-06-20 06:11:00,
2013-06-20 01:43:00,73.0,72.0,-100.00,NW,318,0.0,0.0,96,0.00,,,0.06,0.000000,,2013-06-20 06:43:00,
2013-06-20 01:53:00,73.0,72.0,-100.00,NW,318,0.0,0.0,96,0.00,,,0.06,0.000000,,2013-06-20 06:53:00,
2013-06-20 02:01:00,73.0,72.0,-100.00,NW,318,0.0,0.0,96,0.00,,,0.06,0.000000,,2013-06-20 07:01:00,
2013-06-20 02:12:00,73.0,72.0,-100.00,NW,318,0.0,0.0,96,0.00,,,0.06,0.000000,,2013-06-20 07:12:00,
2013-06-20 02:44:00,72.0,71.0,-100.00,NNW,335,0.0,0.0,96,0.00,,,0.02,0.000000,,2013-06-20 07:44:00,
2013-06-20 02:53:00,72.0,71.0,-100.00,NNW,335,0.0,0.0,96,0.00,,,0.02,0.000000,,2013-06-20 07:53:00,
2013-06-20 03:02:00,72.0,71.0,-100.00,NNW,335,0.0,0.0,96,0.00,,,0.02,0.000000,,2013-06-20 08:02:00,
2013-06-20 03:11:00,72.0,71.0,-100.00,NNW,335,0.0,0.0,96,0.00,,,0.02,0.000000,,2013-06-20 08:11:00,
2013-06-20 03:43:00,71.0,70.0,-100.00,NNW,332,0.0,0.0,96,0.00,,,0.01,0.000000,,2013-06-20 08:43:00,
2013-06-20 03:53:00,71.0,70.0,-100.00,NNW,332,0.0,0.0,96,0.00,,,0.01,0.000000,,2013-06-20 08:53:00,
2013-06-20 04:02:00,71.0,70.0,-100.00,NNW,332,0.0,0.0,96,0.00,,,0.01,0.000000,,2013-06-20 09:02:00,
2013-06-20 04:12:00,71.0,70.0,-100.00,NNW,332,0.0,0.0,96,0.00,,,0.01,0.000000,,2013-06-20 09:12:00,
2013-06-20 04:43:00,71.0,70.0,-100.00,North,355,1.0,2.0,96,0.00,,,0.01,0.000000,,2013-06-20 09:43:00,
2013-06-20 04:52:00,71.0,70.0,-100.00,North,355,1.0,2.0,96,0.00,,,0.01,0.000000,,2013-06-20 09:52:00,
2013-06-20 05:01:00,71.0,70.0,-100.00,North,355,1.0,2.0,96,0.00,,,0.01,0.000000,,2013-06-20 10:01:00,
2013-06-20 05:11:00,71.0,70.0,-100.00,North,355,1.0,2.0,96,0.00,,,0.01,0.000000,,2013-06-20 10:11:00,
2013-06-20 05:44:00,70.0,69.0,-100.00,NNW,342,0.0,3.0,96,0.00,,,0.01,0.000000,,2013-06-20 10:44:00,
2013-06-20 05:53:00,70.0,69.0,-100.00,NNW,342,0.0,3.0,96,0.00,,,0.01,0.000000,,2013-06-20 10:53:00,
2013-06-20 06:02:00,70.0,69.0,-100.00,NNW,342,0.0,3.0,96,0.00,,,0.01,0.000000,,2013-06-20 11:02:00,
2013-06-20 06:12:00,70.0,69.0,-100.00,NNW,342,0.0,3.0,96,0.00,,,0.01,0.000000,,2013-06-20 11:12:00,
2013-06-20 06:43:00,70.0,69.0,-100.00,NNE,16,1.0,4.0,96,0.00,,,0.01,6.000000,,2013-06-20 11:43:00,
2013-06-20 06:53:00,70.0,69.0,-100.00,NNE,16,1.0,4.0,96,0.00,,,0.01,6.000000,,2013-06-20 11:53:00,
2013-06-20 07:02:00,70.0,69.0,-100.00,NNE,16,1.0,4.0,96,0.00,,,0.01,6.000000,,2013-06-20 12:02:00,
2013-06-20 07:12:00,70.0,69.0,-100.00,NNE,16,1.0,4.0,96,0.00,,,0.01,6.000000,,2013-06-20 12:12:00,
2013-06-20 07:43:00,74.0,72.0,-100.00,NE,38,1.0,4.0,93,0.00,,,0.01,94.000000,,2013-06-20 12:43:00,
2013-06-20 07:53:00,74.0,72.0,-100.00,NE,38,1.0,4.0,93,0.00,,,0.01,94.000000,,2013-06-20 12:53:00,
2013-06-20 08:02:00,74.0,72.0,-100.00,NE,38,1.0,4.0,93,0.00,,,0.01,94.000000,,2013-06-20 13:02:00,
2013-06-20 08:11:00,74.0,72.0,-100.00,NE,38,1.0,4.0,93,0.00,,,0.01,94.000000,,2013-06-20 13:11:00,
2013-06-20 08:43:00,80.0,72.0,-100.00,ENE,77,2.0,5.0,77,0.00,,,0.01,346.000000,,2013-06-20 13:43:00,
2013-06-20 08:53:00,80.0,72.0,-100.00,ENE,77,2.0,5.0,77,0.00,,,0.01,346.000000,,2013-06-20 13:53:00,
2013-06-20 09:02:00,80.0,72.0,-100.00,ENE,77,2.0,5.0,77,0.00,,,0.01,346.000000,,2013-06-20 14:02:00,
2013-06-20 09:11:00,80.0,72.0,-100.00,ENE,77,2.0,5.0,77,0.00,,,0.01,346.000000,,2013-06-20 14:11:00,
2013-06-20 09:42:00,84.0,72.0,-100.00,NNW,341,4.0,7.0,67,0.00,,,0.01,569.000000,,2013-06-20 14:42:00,
2013-06-20 09:53:00,84.0,72.0,-100.00,NNW,341,4.0,7.0,67,0.00,,,0.01,569.000000,,2013-06-20 14:53:00,
2013-06-20 10:02:00,84.0,72.0,-100.00,NNW,341,4.0,7.0,67,0.00,,,0.01,569.000000,,2013-06-20 15:02:00,
2013-06-20 10:11:00,84.0,72.0,-100.00,NNW,341,4.0,7.0,67,0.00,,,0.01,569.000000,,2013-06-20 15:11:00,
2013-06-20 11:12:00,88.0,73.0,-100.00,NE,39,2.0,6.0,61,0.00,,,0.01,791.000000,,2013-06-20 16:12:00,
2013-06-20 11:43:00,85.0,72.0,-100.00,WNW,285,2.0,6.0,66,0.00,,,0.01,465.000000,,2013-06-20 16:43:00,
2013-06-20 11:52:00,85.0,72.0,-100.00,WNW,285,2.0,6.0,66,0.00,,,0.01,465.000000,,2013-06-20 16:52:00,
2013-06-20 12:02:00,85.0,72.0,-100.00,WNW,285,2.0,6.0,66,0.00,,,0.01,465.000000,,2013-06-20 17:02:00,
2013-06-20 12:12:00,85.0,72.0,-100.00,WNW,285,2.0,6.0,66,0.00,,,0.01,465.000000,,2013-06-20 17:12:00,
2013-06-20 12:43:00,91.0,70.0,-100.00,NNE,17,2.0,7.0,51,0.00,,,0.00,1024.000000,,2013-06-20 17:43:00,
2013-06-20 12:53:00,91.0,70.0,-100.00,NNE,17,2.0,7.0,51,0.00,,,0.00,1024.000000,,2013-06-20 17:53:00,
2013-06-20 13:01:00,91.0,70.0,-100.00,NNE,17,2.0,7.0,51,0.00,,,0.00,1024.000000,,2013-06-20 18:01:00,
2013-06-20 13:11:00,91.0,70.0,-100.00,NNE,17,2.0,7.0,51,0.00,,,0.00,1024.000000,,2013-06-20 18:11:00,
2013-06-20 13:43:00,89.0,71.0,-100.00,North,355,4.0,8.0,56,0.00,,,0.00,913.000000,,2013-06-20 18:43:00,
2013-06-20 13:53:00,89.0,71.0,-100.00,North,355,4.0,8.0,56,0.00,,,0.00,913.000000,,2013-06-20 18:53:00,
2013-06-20 14:01:00,89.0,71.0,-100.00,North,355,4.0,8.0,56,0.00,,,0.00,913.000000,,2013-06-20 19:01:00,
2013-06-20 14:11:00,89.0,71.0,-100.00,North,355,4.0,8.0,56,0.00,,,0.00,913.000000,,2013-06-20 19:11:00,
2013-06-20 14:44:00,90.0,71.0,-100.00,NE,42,3.0,9.0,54,0.00,,,0.00,619.000000,,2013-06-20 19:44:00,
2013-06-20 14:52:00,90.0,71.0,-100.00,NE,42,3.0,9.0,54,0.00,,,0.00,619.000000,,2013-06-20 19:52:00,
2013-06-20 15:02:00,90.0,71.0,-100.00,NE,42,3.0,9.0,54,0.00,,,0.00,619.000000,,2013-06-20 20:02:00,
2013-06-20 15:11:00,90.0,71.0,-100.00,NE,42,3.0,9.0,54,0.00,,,0.00,619.000000,,2013-06-20 20:11:00,
2013-06-20 15:53:00,89.0,70.0,-100.00,ENE,78,3.0,9.0,54,0.00,,,0.00,629.000000,,2013-06-20 20:53:00,
2013-06-20 16:01:00,89.0,70.0,-100.00,ENE,78,3.0,9.0,54,0.00,,,0.00,629.000000,,2013-06-20 21:01:00,